Flag for U.S.A. Weather past 2 weeks in Grand Junction, Colorado, U.S.A.

Now
47 °F

Light rain. Mostly cloudy.


Feels Like: 45 °F
Forecast: 44 / 56 °F
Wind: 5 mph from Northwest

Location: Walker Field

Current Time: Apr 25, 2015 at 7:27:32 PM

Latest Report: Apr 25, 2015 at 6:53 PM


Visibility: 10 mi

Pressure: 29.69 "Hg

Humidity: 93%

Dew point: 45 °F

Location of Grand JunctionLocation

Historic Weather in Grand Junction — Graph

°F

Grand Junction temperature yesterday

Maximum temperature yesterday: 65 °F (at 12:53 PM)
Minimum temperature yesterday: 44 °F (at 6:53 AM)
Average temperature yesterday: 55 °F

Past Weeks' High & Low Weather Summary

 TemperatureHumidityPressure
High76 °F (Apr 14, 2:53 PM)100% (Apr 16, 9:53 AM)30.15 "Hg (Apr 16, 9:53 AM)
Low30 °F (Apr 16, 5:53 AM)6% (Apr 13, 5:53 PM)29.49 "Hg (Apr 14, 9:53 PM)
Average50 °F49%29.86 "Hg
* Reported Apr 10 5:53 PM — Apr 25 5:53 PM, Grand Junction, Weather by CustomWeather, © 2015

Note: Actual official high and low records may vary slightly from our data, if they occured in-between our weather recording intervals... More about our weather records

Advertising

Grand Junction weather history for previous 24 hours

 ConditionsComfort  
Time TempWeatherWind HumidityBarometerVisibility
5:53 PM
Sat, Apr 25
49 °FMore clouds than sun.9 mph86%29.68 "Hg10 mi
4:53 PM51 °FMostly cloudy.3 mph80%29.67 "Hg10 mi
3:53 PM57 °FPartly sunny.9 mph47%29.62 "Hg10 mi
2:53 PM56 °FSunny.3 mph46%29.66 "Hg10 mi
1:53 PM56 °FSunny.5 mph58%29.69 "Hg10 mi
12:53 PM52 °FPassing clouds.5 mph66%29.74 "Hg10 mi
11:53 AM49 °FPartly sunny.5 mph80%29.78 "Hg10 mi
10:53 AM46 °FMore clouds than sun.3 mph83%29.79 "Hg10 mi
10:01 AM42 °FLight rain. Fog.No wind100%29.88 "Hg6 mi
8:53 AM41 °FRain. Fog.13 mph100%29.79 "Hg2 mi
7:53 AM44 °FRain. Fog.15 mph96%29.75 "Hg3 mi
6:53 AM48 °FMostly cloudy.10 mph63%29.70 "Hg10 mi
5:53 AM48 °FOvercast.9 mph59%29.67 "Hg10 mi
4:53 AM49 °FMostly cloudy.5 mph55%29.66 "Hg10 mi
3:53 AM50 °FMostly cloudy.9 mph50%29.64 "Hg10 mi
2:53 AM50 °FMostly cloudy.17 mph52%29.64 "Hg10 mi
1:53 AM51 °FMostly cloudy.14 mph50%29.65 "Hg10 mi
12:53 AM51 °FOvercast.14 mph50%29.63 "Hg10 mi
11:53 PM
Fri, Apr 24
52 °FPassing clouds.15 mph47%29.63 "Hg10 mi
10:53 PM53 °FPassing clouds.14 mph45%29.64 "Hg10 mi
9:53 PM55 °FOvercast.15 mph42%29.63 "Hg10 mi
8:53 PM56 °FOvercast.18 mph40%29.62 "Hg10 mi
7:53 PM57 °FPartly sunny.17 mph37%29.61 "Hg10 mi
Weather by CustomWeather, © 2015

See weather overviewHow to use our weather pages